GW4956 Weather Reports


Display with metric or nautical units.
time (UTC)temp
F
wind
direction
speed
MPH
gust
MPH
rain 1hr
in
rain 24hr
in
rain mn
in
humidity
%
barometer
mb
20260505114351 57 78 3.0 4.0 0.00 0.00 0.00 42 1009.4
20260505113847 58 66 3.0 4.0 0.00 0.00 0.00 41 1009.2
20260505113344 58 10 3.0 4.0 0.00 0.00 0.00 40 1009.4
20260505112840 58 22 1.0 1.0 0.00 0.00 0.00 40 1009.4
20260505112337 59 151 6.0 8.0 0.00 0.00 0.00 40 1009.0
20260505111833 59 76 5.0 7.0 0.00 0.00 0.00 39 1009.2
20260505111329 60 127 4.0 6.0 0.00 0.00 0.00 39 1009.1
20260505110825 60 97 5.0 10.0 0.00 0.00 0.00 38 1008.9
20260505110322 60 106 7.0 10.0 0.00 0.00 0.00 38 1008.9
20260505101757 61 118 5.0 8.0 0.00 0.00 0.00 37 1008.2
20260505101252 61 26 2.0 3.0 0.00 0.00 0.00 37 1008.0
20260505100749 60 113 3.0 4.0 0.00 0.00 0.00 39 1007.8
20260505100245 60 34 0.0 0.0 0.00 0.00 0.00 40 1007.9
20260505095741 60 37 0.0 0.0 0.00 0.00 0.00 40 1007.8
20260505095239 59 26 0.0 0.0 0.00 0.00 0.00 41 1007.6
20260505094734 57 21 0.0 0.0 0.00 0.00 0.00 44 1007.6
20260505094231 56 332 2.0 2.0 0.00 0.00 0.00 50 1007.6
20260505093727 57 354 1.0 1.0 0.00 0.00 0.00 48 1007.6
20260505093225 56 29 0.0 0.0 0.00 0.00 0.00 48 1007.3
20260505092722 55 342 2.0 2.0 0.00 0.00 0.00 53 1007.3
20260505092221 55 334 1.0 1.0 0.00 0.00 0.00 53 1007.3
20260505091717 54 337 2.0 2.0 0.00 0.00 0.00 55 1007.4
20260505091215 55 343 1.0 1.0 0.00 0.00 0.00 55 1007.3
20260505090713 54 351 0.0 0.0 0.00 0.00 0.00 55 1007.3
20260505090211 54 316 2.0 3.0 0.00 0.00 0.00 55 1007.4
20260505085708 54 326 3.0 3.0 0.00 0.00 0.00 55 1007.3
20260505085206 54 312 4.0 4.0 0.00 0.00 0.00 56 1007.2
20260505084703 54 346 0.0 0.0 0.00 0.00 0.00 55 1007.2
20260505084202 55 3 0.0 0.0 0.00 0.00 0.00 54 1007.1
20260505083658 56 296 5.0 6.0 0.00 0.00 0.00 53 1006.9
20260505083155 57 317 6.0 7.0 0.00 0.00 0.00 50 1007.1
20260505082651 58 308 3.0 3.0 0.00 0.00 0.00 47 1006.8
20260505082148 58 328 0.0 1.0 0.00 0.00 0.00 47 1006.8
20260505081644 59 310 2.0 2.0 0.00 0.00 0.00 45 1007.0
20260505081142 59 355 0.0 0.0 0.00 0.00 0.00 44 1006.8
20260505080638 59 337 1.0 1.0 0.00 0.00 0.00 43 1006.6
20260505080134 60 324 2.0 2.0 0.00 0.00 0.00 43 1006.5
20260505075631 59 332 1.0 1.0 0.00 0.00 0.00 44 1006.7
20260505075128 60 356 0.0 0.0 0.00 0.00 0.00 43 1006.6
20260505074624 61 287 0.0 1.0 0.00 0.00 0.00 42 1006.5
20260505074121 61 37 0.0 0.0 0.00 0.00 0.00 40 1006.5
20260505073619 60 354 1.0 1.0 0.00 0.00 0.00 42 1006.5
20260505073117 59 5 0.0 1.0 0.00 0.00 0.00 44 1006.5
20260505072612 58 58 2.0 2.0 0.00 0.00 0.00 46 1006.4
20260505072109 58 357 2.0 2.0 0.00 0.00 0.00 47 1005.9
20260505071605 58 313 5.0 6.0 0.00 0.00 0.00 46 1005.6
20260505071103 58 304 4.0 4.0 0.00 0.00 0.00 47 1005.8
20260505070600 58 312 4.0 6.0 0.00 0.00 0.00 47 1005.6
20260505070056 58 343 2.0 2.0 0.00 0.00 0.00 47 1005.4
20260505065552 58 10 2.0 2.0 0.00 0.00 0.00 46 1005.6
20260505065049 59 331 3.0 3.0 0.00 0.00 0.00 45 1005.6
20260505064546 59 2 1.0 1.0 0.00 0.00 0.00 44 1005.5
20260505064044 60 304 3.0 4.0 0.00 0.00 0.00 43 1005.4
20260505063541 60 1 1.0 1.0 0.00 0.00 0.00 43 1005.4
20260505063037 59 3 2.0 2.0 0.00 0.00 0.00 44 1005.5
20260505062534 59 301 4.0 6.0 0.00 0.00 0.00 44 1005.3
20260505062031 59 312 4.0 6.0 0.00 0.00 0.00 44 1005.4
20260505061528 60 299 4.0 7.0 0.00 0.00 0.00 43 1005.1
20260505061026 60 303 5.0 7.0 0.00 0.00 0.00 43 1005.3
20260505060523 60 315 6.0 8.0 0.00 0.00 0.00 43 1005.1
20260505060020 60 318 6.0 8.0 0.00 0.00 0.00 41 1005.4
20260505055515 59 321 4.0 4.0 0.00 0.00 0.00 41 1005.0
20260505055012 59 302 6.0 8.0 0.00 0.00 0.00 42 1005.0
20260505054510 59 274 3.0 4.0 0.00 0.00 0.00 41 1005.3
20260505054008 59 272 6.0 9.0 0.00 0.00 0.00 41 1005.0
20260505053504 60 313 2.0 3.0 0.00 0.00 0.00 41 1005.1
20260505053001 60 17 2.0 2.0 0.00 0.00 0.00 41 1005.3
20260505052458 61 295 3.0 4.0 0.00 0.00 0.00 40 1005.1
20260505051955 61 306 3.0 3.0 0.00 0.00 0.00 40 1005.1
20260505051452 61 324 3.0 3.0 0.00 0.00 0.00 40 1005.4
20260505050950 61 323 1.0 2.0 0.00 0.00 0.00 39 1005.3
20260505050448 61 6 2.0 3.0 0.00 0.00 0.00 40 1005.1
20260505041416 63 338 3.0 4.0 0.00 0.00 0.00 39 1005.1
20260505040913 64 305 4.0 4.0 0.00 0.00 0.00 39 1005.0
20260505040411 64 341 3.0 4.0 0.00 0.00 0.00 38 1005.3
20260505035907 64 321 3.0 4.0 0.00 0.00 0.00 38 1005.0
20260505035403 65 316 4.0 6.0 0.00 0.00 0.00 38 1005.3
20260505034901 65 10 1.0 2.0 0.00 0.00 0.00 37 1005.0
20260505034357 65 304 4.0 6.0 0.00 0.00 0.00 37 1005.1
20260505033854 66 346 4.0 4.0 0.00 0.00 0.00 36 1005.0
20260505033351 66 323 4.0 4.0 0.00 0.00 0.00 36 1005.1
20260505032849 67 313 4.0 6.0 0.00 0.00 0.00 35 1004.9
20260505032345 67 314 4.0 6.0 0.00 0.00 0.00 34 1004.9
20260505031842 68 357 2.0 3.0 0.00 0.00 0.00 32 1005.0
20260505031339 69 332 4.0 4.0 0.00 0.00 0.00 31 1004.8
20260505030836 69 5 3.0 3.0 0.00 0.00 0.00 31 1004.8
20260505030332 69 300 4.0 6.0 0.00 0.00 0.00 30 1004.6
20260505025828 70 0 5.0 7.0 0.00 0.00 0.00 29 1004.8
20260505025325 71 344 3.0 3.0 0.00 0.00 0.00 27 1004.7
20260505024824 72 314 5.0 6.0 0.00 0.00 0.00 26 1004.8
20260505024321 73 291 4.0 4.0 0.00 0.00 0.00 26 1004.8
20260505023818 73 350 2.0 2.0 0.00 0.00 0.00 25 1004.8
20260505023315 74 323 3.0 3.0 0.00 0.00 0.00 24 1004.7
20260505022812 75 321 7.0 8.0 0.00 0.00 0.00 23 1004.8
20260505022309 76 292 5.0 6.0 0.00 0.00 0.00 23 1004.6
20260505021806 76 311 8.0 10.0 0.00 0.00 0.00 22 1004.7
20260505021303 77 308 9.0 11.0 0.00 0.00 0.00 21 1004.9
20260505020759 77 318 9.0 11.0 0.00 0.00 0.00 22 1004.8
20260505020254 77 333 5.0 8.0 0.00 0.00 0.00 21 1004.5
20260505015752 78 312 10.0 11.0 0.00 0.00 0.00 21 1004.7
20260505015248 78 31 5.0 9.0 0.00 0.00 0.00 22 1004.6
20260505014746 78 337 6.0 9.0 0.00 0.00 0.00 22 1005.0
20260505014243 78 286 11.0 16.0 0.00 0.00 0.00 22 1004.5
20260505013739 78 349 9.0 9.0 0.00 0.00 0.00 22 1004.9
20260505013237 79 301 8.0 9.0 0.00 0.00 0.00 22 1004.8
20260505012735 79 279 9.0 11.0 0.00 0.00 0.00 22 1004.9
20260505012232 79 291 8.0 10.0 0.00 0.00 0.00 23 1004.8
20260505011727 79 287 9.0 11.0 0.00 0.00 0.00 23 1005.1
20260505011225 79 320 11.0 14.0 0.00 0.00 0.00 23 1005.1
20260505010720 79 289 8.0 11.0 0.00 0.00 0.00 24 1005.1
20260505010217 79 34 7.0 9.0 0.00 0.00 0.00 24 1005.3
20260505005713 79 304 5.0 7.0 0.00 0.00 0.00 23 1005.5
20260505005211 80 311 10.0 11.0 0.00 0.00 0.00 23 1005.4
20260505004708 80 300 6.0 8.0 0.00 0.00 0.00 22 1005.5
20260505004204 80 327 8.0 9.0 0.00 0.00 0.00 22 1005.4
20260505003701 79 288 9.0 11.0 0.00 0.00 0.00 20 1005.4
20260505003159 79 314 7.0 9.0 0.00 0.00 0.00 21 1005.4
20260505002655 79 232 8.0 9.0 0.00 0.00 0.00 21 1005.5
20260505002153 79 327 11.0 16.0 0.00 0.00 0.00 20 1005.7
20260505001649 79 301 7.0 10.0 0.00 0.00 0.00 20 1005.6
20260505001147 79 329 6.0 8.0 0.00 0.00 0.00 17 1005.7
20260505000644 79 278 13.0 18.0 0.00 0.00 0.00 19 1005.8
20260505000142 80 356 9.0 13.0 0.00 0.00 0.00 20 1005.8
20260504235638 80 296 10.0 13.0 0.00 0.00 0.00 20 1005.9
20260504235135 80 262 12.0 15.0 0.00 0.00 0.00 19 1005.7
20260504234632 80 21 4.0 6.0 0.00 0.00 0.00 17 1006.0
20260504234130 80 350 6.0 11.0 0.00 0.00 0.00 17 1006.0
20260504233625 79 271 13.0 17.0 0.00 0.00 0.00 19 1006.1
20260504233121 80 302 9.0 13.0 0.00 0.00 0.00 18 1005.9
20260504232619 80 20 6.0 9.0 0.00 0.00 0.00 17 1006.1
20260504232116 79 297 7.0 9.0 0.00 0.00 0.00 17 1006.1
20260504231613 80 16 8.0 11.0 0.00 0.00 0.00 18 1006.1
20260504231109 79 299 5.0 7.0 0.00 0.00 0.00 17 1006.1
20260504230604 80 0 7.0 8.0 0.00 0.00 0.00 16 1006.4
20260504230104 79 269 13.0 15.0 0.00 0.00 0.00 17 1006.1
20260504225601 80 287 8.0 11.0 0.00 0.00 0.00 15 1006.2
20260504225058 80 289 7.0 8.0 0.00 0.00 0.00 18 1006.5
20260504224554 80 41 6.0 8.0 0.00 0.00 0.00 17 1006.5
20260504224051 80 3 12.0 14.0 0.00 0.00 0.00 18 1006.5
20260504223548 80 237 11.0 14.0 0.00 0.00 0.00 16 1006.7
20260504223044 80 311 9.0 11.0 0.00 0.00 0.00 17 1006.4
20260504222541 79 335 3.0 6.0 0.00 0.00 0.00 18 1006.8
20260504222038 79 292 9.0 11.0 0.00 0.00 0.00 15 1006.8
20260504221536 80 291 14.0 16.0 0.00 0.00 0.00 14 1007.0
20260504221032 79 303 11.0 14.0 0.00 0.00 0.00 15 1006.8
20260504220529 79 313 10.0 11.0 0.00 0.00 0.00 18 1007.0
20260504220026 79 315 6.0 8.0 0.00 0.00 0.00 16 1007.3
20260504215522 79 245 8.0 11.0 0.00 0.00 0.00 16 1007.3
20260504215020 79 309 7.0 9.0 0.00 0.00 0.00 16 1007.3
20260504214516 80 7 12.0 16.0 0.00 0.00 0.00 15 1007.3
20260504214012 78 293 6.0 8.0 0.00 0.00 0.00 18 1007.3
20260504213508 78 273 10.0 15.0 0.00 0.00 0.00 17 1007.6
20260504213006 78 265 11.0 14.0 0.00 0.00 0.00 16 1007.6
20260504212501 78 17 4.0 6.0 0.00 0.00 0.00 18 1007.6
20260504211959 78 250 6.0 13.0 0.00 0.00 0.00 18 1007.9
20260504211456 77 296 10.0 13.0 0.00 0.00 0.00 20 1007.6
20260504210953 78 272 7.0 9.0 0.00 0.00 0.00 21 1008.1
20260504210450 78 342 11.0 14.0 0.00 0.00 0.00 22 1007.9
20260504205947 78 331 6.0 7.0 0.00 0.00 0.00 23 1007.8
20260504205444 77 300 10.0 11.0 0.00 0.00 0.00 21 1008.2
20260504204942 78 5 8.0 11.0 0.00 0.00 0.00 21 1008.2
20260504204440 77 300 5.0 8.0 0.00 0.00 0.00 22 1008.1
20260504203939 77 262 9.0 10.0 0.00 0.00 0.00 24 1008.3
20260504203437 78 283 9.0 13.0 0.00 0.00 0.00 21 1008.5
20260504202932 77 318 5.0 9.0 0.00 0.00 0.00 23 1008.2
20260504202429 77 266 6.0 7.0 0.00 0.00 0.00 24 1008.2
20260504201926 77 255 6.0 9.0 0.00 0.00 0.00 22 1008.7
20260504201423 76 328 9.0 10.0 0.00 0.00 0.00 25 1008.4
20260504200921 76 341 3.0 4.0 0.00 0.00 0.00 26 1008.7
20260504200417 76 3 5.0 6.0 0.00 0.00 0.00 25 1008.7
20260504195914 76 290 7.0 8.0 0.00 0.00 0.00 24 1008.5
20260504195410 75 24 7.0 8.0 0.00 0.00 0.00 24 1008.7
20260504194907 75 6 10.0 11.0 0.00 0.00 0.00 26 1008.7
20260504194402 76 44 9.0 10.0 0.00 0.00 0.00 25 1008.9
20260504193859 75 9 4.0 4.0 0.00 0.00 0.00 26 1009.1
20260504193356 75 337 9.0 11.0 0.00 0.00 0.00 25 1008.9
20260504192855 75 7 7.0 9.0 0.00 0.00 0.00 26 1009.0
20260504192352 75 345 4.0 4.0 0.00 0.00 0.00 24 1009.1
20260504191850 75 311 5.0 7.0 0.00 0.00 0.00 26 1009.0
20260504191348 75 294 5.0 8.0 0.00 0.00 0.00 27 1009.1
20260504190843 75 292 9.0 9.0 0.00 0.00 0.00 27 1009.3
20260504190339 74 291 5.0 8.0 0.00 0.00 0.00 27 1009.2
20260504185836 74 356 5.0 6.0 0.00 0.00 0.00 27 1009.2
20260504185333 74 21 6.0 9.0 0.00 0.00 0.00 29 1009.3
20260504184829 73 279 8.0 10.0 0.00 0.00 0.00 29 1009.6
20260504184325 73 327 3.0 4.0 0.00 0.00 0.00 29 1009.6
20260504183821 73 37 6.0 7.0 0.00 0.00 0.00 29 1009.9
20260504183318 72 310 5.0 7.0 0.00 0.00 0.00 32 1009.6
20260504182816 73 354 5.0 7.0 0.00 0.00 0.00 29 1009.8
20260504182313 73 265 7.0 9.0 0.00 0.00 0.00 30 1009.8
20260504181810 72 22 4.0 6.0 0.00 0.00 0.00 30 1009.8
20260504181308 72 325 10.0 13.0 0.00 0.00 0.00 29 1010.0
20260504180807 72 307 3.0 3.0 0.00 0.00 0.00 28 1010.1
20260504180305 73 303 6.0 8.0 0.00 0.00 0.00 28 1010.0
20260504175803 72 343 1.0 2.0 0.00 0.00 0.00 28 1009.9
20260504175259 71 295 3.0 4.0 0.00 0.00 0.00 29 1010.0
20260504174757 71 8 6.0 8.0 0.00 0.00 0.00 30 1010.1
20260504174254 71 347 4.0 6.0 0.00 0.00 0.00 29 1010.3
20260504173751 70 318 5.0 7.0 0.00 0.00 0.00 30 1010.3
20260504173248 71 302 6.0 8.0 0.00 0.00 0.00 29 1010.1
20260504172744 70 26 5.0 6.0 0.00 0.00 0.00 30 1010.2
20260504172241 69 291 6.0 7.0 0.00 0.00 0.00 33 1010.0
20260504171737 70 343 4.0 6.0 0.00 0.00 0.00 32 1010.1
20260504171234 69 212 2.0 2.0 0.00 0.00 0.00 33 1010.1
20260504170732 69 316 6.0 7.0 0.00 0.00 0.00 33 1010.3
20260504170229 68 289 6.0 8.0 0.00 0.00 0.00 34 1010.3
20260504160147 66 150 2.0 2.0 0.00 0.00 0.00 36 1010.6
20260504151114 64 52 0.0 1.0 0.00 0.00 0.00 36 1011.0
20260504150612 63 35 0.0 0.0 0.00 0.00 0.00 38 1010.7
20260504150109 62 45 0.0 0.0 0.00 0.00 0.00 40 1010.9
20260504141038 55 22 0.0 0.0 0.00 0.00 0.00 54 1010.9
20260504140534 53 22 0.0 0.0 0.00 0.00 0.00 56 1010.7
20260504130459 47 24 0.0 1.0 0.00 0.00 0.00 69 1010.2